Flag for Japan Weather past 2 weeks in Sendai, Japan

Now
77 °F

Partly sunny.


Feels Like: 78 °F
Forecast: 72 / 88 °F
Wind: 2 mph from North

Location: Sendai Airport

Current Time: Aug 22, 2014 at 5:29:07 PM

Latest Report: Aug 22, 2014 at 5:00 PM


Visibility: 4 mi

Pressure: 29.86 "Hg

Humidity: 94%

Dew point: 75 °F

Location of SendaiLocation

Historic Weather in Sendai — Graph

°F

Sendai temperature yesterday

Maximum temperature yesterday: 84 °F (at 1:00 PM)
Minimum temperature yesterday: 75 °F (at 7:00 PM)
Average temperature yesterday: 80 °F

Past Weeks' High & Low Weather Summary

 TemperatureHumidityPressure
High88 °F (Aug 20, 3:00 PM)100% (Aug 8, 6:00 PM)30.01 "Hg (Aug 8, 6:00 PM)
Low68 °F (Aug 10, 5:48 AM)62% (Aug 11, 4:00 PM)29.36 "Hg (Aug 11, 6:00 AM)
Average76 °F89%29.81 "Hg
* Reported Aug 7 4:00 PM — Aug 22 4:00 PM, Sendai, Weather by CustomWeather, © 2014

Note: Actual official high and low records may vary slightly from our data, if they occured in-between our weather recording intervals... More about our weather records

Advertising

Sendai weather history for previous 24 hours

 ConditionsComfort  
Time TempWeatherWind HumidityBarometerVisibility
4:00 PM
Aug 22
77 °FBroken clouds.7 mph94%29.83 "Hg4 mi
3:00 PM77 °FBroken clouds.7 mph94%29.83 "Hg5 mi
2:00 PM79 °FBroken clouds.8 mph89%29.86 "Hg5 mi
1:00 PM79 °FPartly sunny.9 mph89%29.86 "HgN/A
12:00 PM81 °FPassing clouds.9 mph84%29.86 "HgN/A
11:00 AM81 °FBroken clouds.7 mph89%29.89 "HgN/A
10:00 AM77 °FBroken clouds.2 mph94%29.89 "Hg5 mi
9:00 AM77 °FBroken clouds.3 mph94%29.89 "Hg5 mi
8:00 AM75 °FFog.3 mph100%29.89 "Hg3 mi
7:00 AM75 °FDrizzle. Fog.3 mph94%29.89 "Hg2 mi
6:00 AM75 °FFog.5 mph94%29.89 "Hg2 mi
9:00 PM
Aug 21
75 °FPartly cloudy.3 mph94%29.92 "HgN/A
8:00 PM75 °FPartly cloudy.5 mph94%29.92 "HgN/A
7:00 PM75 °FPartly cloudy.6 mph94%29.89 "HgN/A
6:00 PM77 °FPartly sunny.5 mph89%29.89 "HgN/A
5:00 PM77 °FPartly sunny.8 mph89%29.89 "HgN/A
Weather by CustomWeather, © 2014

See weather overviewHow to use our weather pages